Hourly Data Report for August 15, 2022

DRYDEN REGIONAL
ONTARIO
Current Station Operator: NAVCAN

49°49'39.000" N
92°44'39.000" W
412.70 m
6032125
71527
YHD

Download Data

Hourly Data (August 2022)
Hourly Data Report for August 15, 2022
TIME
LST
Temp Definition
°C
Dew Point Definition
°C
Rel Hum Definition
%
Precip. Amount Definition
mm

Wind Dir Definition
10's deg

Wind Spd Definition
km/h
Visibility Definition
km
Stn Press Definition
kPa
Hmdx Definition


Wind Chill Definition


Weather Definition


00:00 16.8 16.5 98 0.0 6 8 16.1 96.91     LegendNANA
01:00 17.2 16.4 95 0.0 7 8 16.1 96.93     LegendNANA
02:00 17.4 16.9 97 0.2 LegendMM 4 14.5 96.93     Rain
03:00 17.2 16.9 98 0.0 LegendMM 4 16.1 96.95     LegendNANA
04:00 17.4 17.2 99 2.0 7 9 16.1 96.93     Rain
05:00 17.3 17.1 99 0.8 24 8 9.7 96.94     Rain, Fog
06:00 17.6 17.6 100 0.0 16 11 12.9 96.96     LegendNANA
07:00 18.0 17.7 98 0.0 10 5 16.1 96.95     LegendNANA
08:00 18.3 17.5 95 0.2 15 15 16.1 96.99     LegendNANA
09:00 18.9 18.0 95 0.0 15 15 16.1 96.99     Rain
10:00 19.7 18.2 91 0.0 15 11 16.1 97.05     LegendNANA
11:00 19.0 18.0 94 0.0 15 17 16.1 97.09     Rain
12:00 19.1 18.1 94 1.5 13 18 16.1 97.08     Rain
13:00 19.8 17.9 89 0.0 15 18 16.1 97.11     LegendNANA
14:00 20.2 17.9 86 0.0 14 21 16.1 97.10 26   LegendNANA
15:00 20.4 17.9 86 0.0 14 17 16.1 97.08 26   LegendNANA
16:00 20.3 18.1 87 0.0 12 15 16.1 97.06 26   LegendNANA
17:00 20.5 18.0 86 0.0 12 13 16.1 97.07 27   LegendNANA
18:00 20.0 18.1 89 0.0 11 11 16.1 97.03 26   LegendNANA
19:00 19.6 17.9 90 0.0 11 11 16.1 97.05     LegendNANA
20:00 19.1 17.6 91 0.0 13 17 16.1 97.08     LegendNANA
21:00 19.0 17.5 91 0.0 13 17 16.1 97.09     LegendNANA
22:00 18.6 17.6 94 0.0 15 15 16.1 97.11     LegendNANA
23:00 19.1 17.8 92 0.0 17 18 16.1 97.10     LegendNANA

Notes on Data Quality.

Legend

  • E = Estimated
  • M = Missing
  • NA = Not Available*
  • [empty] = Indicates an unobserved value
Date modified: